SCP
-0 -0 0 0 0 0 -0 0 -0 0 0 0 0 -0 -0 -0 -0 0 0 -0 -0 -0 -0 0 0 0 0 0 0 0 0 0 0 0 0 0 0 0 -0 -0 -0 -0 -0
0 0 0 0 0 0 0 0 -0 -0 0 0 0 0 -0 0 -0 0 0 0 -0 -0 -0 -0 0 0 0 0 0 0 0 0 0 0 0 -0 0 0 0 0 0 -0 -0
0 0 0 0 0 0 0 0 0 -0 0 -0 -0 -0 -0 -0 -0 0 0 0 0 -0 -0 -0 -0 0 0 0 0 0 0 -0 0 0 0 -0 0 -0 -0 -0 -0 -0 -0
-0 0 0 0 0 0 -0 0 0 0 0 -0 -0 0 -0 -0 0 -0 0 0 0 0 -0 0 0 -0 0 0 0 0 0 0 0 0 0 0 0 0 -0 -0 -0 -0 -0
0 0 0 0 0 0 0 0 0 0 -0 0 0 -0 -0 -0 0 0 -0 0 0 0 0 -0 -0 -0 -0 0 0 0 0 0 0 0 0 0 0 0 0 -0 -0 -0 -0
0 -0 0 0 0 0 0 0 0 0 -0 0 0 0 0 0 0 0 0 0 0 0 0 0 0 -0 -0 0 0 0 0 0 0 0 0 0 0 0 0 0 0 0 0
-0 -0 0 0 0 0 -0 0 0 0 -0 -0 0 0 0 0 -0 0 0 0 0 0 0 0 0 0 -0 0 0 0 0 0 0 0 0 0 0 0 0 0 0 0 0
-0 -0 -0 0 0 0 0 0 0 0 0 0 0 0 0 0 0 0 0 0 0 0 0 0 0 0 0 -0 -0 -0 -0 -0 -0 0 0 0 0 0 0 0 0 0 0
-0 -0 -0 -0 0 0 0 0 0 0 0 0 0 0 0 0 0 0 -0 0 0 0 0 0 0 0 0 -0 -0 -0 -0 -0 -0 -0 -0 0 0 0 0 0 0 0 0
-0 -0 -0 -0 0 0 0 0 0 0 0 0 0 0 0 0 0 0 0 0 -0 0 0 0 0 0 -0 -0 -0 -0 -0 -0 -0 -0 -0 -0 -0 0 0 0 -0 -0 -0
-0 -0 -0 -0 -0 -0 0 0 0 0 0 0 0 0 0 0 -0 0 0 0 0 -0 0 0 0 0 0 0 0 -0 -0 -0 -0 -0 -0 -0 -0 -0 -0 -0 -0 -0 -0
-0 -0 -0 -0 -0 -0 -0 0 0 0 0 0 0 0 0 0 0 0 0 0 0 0 0 -0 0 0 0 0 0 -0 -0 -0 -0 -0 -0 -0 -0 -0 -0 -0 -0 -0 -0
-0 -0 -0 -0 -0 -0 -0 0 0 0 0 0 0 -0 0 -0 0 0 0 0 0 0 0 0 -0 -0 -0 -0 0 -0 -0 -0 -0 -0 -0 -0 -0 -0 -0 -0 -0 -0 -0
-0 -0 -0 -0 -0 -0 0 0 0 0 0 0 0 0 0 0 0 0 0 0 0 0 0 0 0 -0 -0 -0 -0 -0 -0 -0 -0 -0 -0 -0 -0 -0 -0 -0 -0 -0 -0
-0 -0 -0 -0 -0 0 0 0 0 0 0 0 0 0 0 0 0 0 0 0 0 0 0 0 0 0 0 0 0 -0 -0 -0 -0 -0 -0 -0 -0 -0 -0 -0 -0 -0 -0
-0 0 -0 -0 0 0 0 0 0 0 0 0 0 0 0 0 0 0 0 0 0 0 0 0 0 0 0 0 0 0 0 0 0 0 -0 -0 -0 -0 -0 -0 -0 0 0
0 0 0 0 0 0 0 0 0 0 0 0 0 0 0 0 0 0 0 0 0 0 0 0 0 0 0 0 0 0 0 0 0 0 0 0 0 0 0 -0 -0 0 0
0 0 0 0 0 0 0 0 0 0 0 0 0 0 0 0 0 0 0 0 0 0 0 0 0 0 -0 0 0 0 0 0 0 0 0 0 0 0 0 0 0 -0 -0
0 0 0 0 0 0 0 0 0 0 0 0 0 0 0 0 0 0 0 0 0 0 0 0 0 0 0 0 0 0 0 0 0 0 0 0 0 0 0 0 0 0 0
0 0 0 0 0 0 0 0 0 0 0 0 0 0 0 0 0 0 0 0 0 0 0 0 0 0 0 0 -0 0 0 0 0 0 0 0 0 0 0 0 0 0 0
0 0 0 0 0 0 0 0 0 0 0 0 0 0 0 0 0 0 0 0 0 0 0 0 0 0 0 0 0 0 0 0 0 0 0 0 0 0 0 0 0 0 0
0 1 0 0 0 0 0 0 0 0 0 0 0 0 0 0 0 0 0 0 0 0 0 0 0 0 0 0 0 0 0 0 0 0 0 0 0 0 0 0 0 0 0
0 1 1 1 0 0 0 0 0 0 0 0 0 0 0 0 0 0 0 0 0 0 0 0 0 0 0 0 0 0 0 0 0 0 0 0 0 0 0 0 0 0 0
1 1 1 1 1 1 0 0 0 0 0 1 1 1 0 0 0 0 0 0 0 0 0 0 0 0 0 0 0 0 0 0 0 0 0 0 0 0 0 0 0 0 0
0 0 0 0 0 0 0 0 0 0 1 1 1 1 1 0 0 0 0 0 0 0 0 0 0 0 0 0 0 0 0 0 0 0 0 0 0 0 0 0 0 0 0
0 0 0 0 0 0 0 0 0 0 1 1 1 1 0 0 0 0 0 0 0 0 0 0 0 0 0 0 0 0 0 0 0 0 0 0 0 0 0 0 0 0 0
Wind_Speed_500mb
24 24 18 16 14 14 8 7 5 2 4 5 6 8 9 6 5 7 19 20 26 29 36 39 48 55 57 51 40 36 32 30 27 24 21 19 18 17 15 14 13 12 13
25 27 17 13 11 9 12 4 0 4 12 13 8 10 7 6 3 7 13 21 22 30 33 40 47 55 57 56 50 42 38 34 29 26 24 21 20 20 19 19 21 19 18
22 28 19 11 17 10 5 3 5 8 7 17 14 3 5 6 6 8 7 12 20 25 28 32 44 57 60 59 56 49 42 37 31 27 26 27 26 25 24 25 25 24 23
26 27 25 15 12 10 3 4 10 7 17 10 10 6 5 6 5 6 2 3 12 16 23 22 33 53 65 65 62 56 49 41 32 26 28 29 29 30 28 28 27 28 28
31 30 26 18 13 8 3 2 7 6 12 8 3 8 9 6 7 8 8 5 9 12 15 13 23 37 54 64 65 60 53 48 41 36 34 35 36 38 36 34 33 32 33
35 33 30 22 16 11 8 7 11 5 9 2 7 14 9 9 12 9 7 9 8 10 13 13 20 31 42 60 64 58 53 49 44 44 46 45 45 45 44 41 39 36 36
40 39 36 29 20 16 11 13 14 10 6 8 5 10 16 11 10 8 6 8 5 4 14 14 14 25 38 50 56 57 55 57 56 55 53 52 52 50 49 45 41 38 37
40 43 40 33 27 21 16 11 8 8 3 7 3 10 11 15 17 16 11 14 9 7 9 12 17 22 30 40 52 55 54 51 49 49 50 53 55 52 48 44 41 40 38
41 48 47 36 30 24 19 14 8 4 7 5 6 9 8 8 15 28 20 18 14 14 16 16 13 16 28 35 37 41 45 46 46 45 44 48 53 56 52 47 42 40 39
43 51 46 39 31 28 23 14 12 9 5 5 7 10 6 9 3 7 22 24 25 21 23 25 18 19 19 26 29 31 34 41 42 42 42 37 40 46 48 45 43 40 39
44 53 51 43 32 28 22 21 18 13 11 8 8 13 9 11 12 15 11 32 36 31 28 29 25 26 27 28 30 30 28 27 29 33 34 31 25 29 35 38 40 39 37
42 52 54 46 34 32 25 25 20 19 15 13 11 10 13 7 13 12 17 21 40 41 37 36 37 36 36 34 31 31 26 30 27 25 27 28 28 29 31 35 36 35 34
50 54 52 50 44 34 31 27 27 26 23 19 15 19 19 19 18 16 20 20 29 37 40 43 44 40 43 43 39 33 31 29 30 27 22 21 23 26 28 30 31 33 34
43 52 50 45 46 36 33 32 26 30 26 22 22 22 23 23 20 17 20 19 16 24 31 35 40 45 39 40 41 39 41 38 34 32 30 29 29 29 28 31 31 33 34
34 50 50 48 47 42 39 36 33 32 32 26 20 20 22 25 23 22 20 21 18 13 20 19 22 31 41 46 42 47 39 39 38 31 27 28 32 34 34 33 32 34 36
36 38 43 46 47 45 40 39 39 36 38 33 31 30 29 25 25 22 16 15 22 25 28 23 23 22 26 33 38 39 35 32 35 35 31 28 31 33 34 33 34 33 35
40 44 45 43 42 40 42 48 44 42 44 37 35 35 29 27 26 29 28 24 24 28 30 26 27 24 18 27 27 29 33 32 31 30 30 28 30 30 29 34 36 34 35
45 49 50 51 50 51 47 56 62 56 47 45 38 38 34 31 31 30 34 31 26 26 27 23 24 27 20 16 21 24 25 28 34 30 31 30 30 31 31 31 31 34 35
57 57 59 58 55 52 53 54 52 54 46 51 46 42 42 39 40 37 37 37 36 33 34 33 28 24 22 15 20 20 23 26 21 23 27 28 29 32 32 29 30 30 31
53 66 64 64 60 56 55 52 49 58 56 54 55 48 44 46 42 38 43 41 37 33 36 40 41 36 29 35 32 31 29 25 21 21 24 27 27 31 29 33 33 34 35
56 48 69 71 67 64 61 58 58 55 64 60 60 55 52 49 49 46 44 43 40 37 36 40 41 39 33 33 39 33 34 32 30 33 32 31 31 27 26 28 32 33 37
55 61 58 64 78 73 67 63 63 61 62 66 64 58 55 50 54 52 52 50 46 45 41 41 37 38 36 36 33 29 30 27 29 32 36 37 37 31 31 34 38 40 43
50 56 67 64 66 71 74 66 64 65 61 63 66 65 62 57 55 55 57 57 52 48 44 41 43 38 34 31 31 32 35 34 32 31 30 37 37 41 42 46 47 48 51
41 45 54 61 71 76 75 76 68 69 61 63 64 66 63 61 59 57 59 58 57 55 52 50 50 44 39 36 35 39 42 48 50 47 46 55 53 54 50 51 50 46 44
49 53 48 50 55 69 72 73 69 71 76 70 68 68 64 59 63 57 58 57 56 50 49 55 55 51 47 46 39 42 44 45 50 48 40 45 48 49 49 51 49 45 45
56 56 58 59 53 56 59 72 73 73 77 79 73 70 69 68 62 58 59 58 58 56 46 45 47 52 54 46 41 41 40 43 45 49 44 43 43 41 46 50 46 44 40
Wind_Direction_500mb
221 219 189 201 213 237 216 198 256 302 276 275 270 230 218 226 258 261 219 234 239 230 217 210 203 204 210 209 203 202 200 197 203 210 215 214 221 229 236 245 249 259 275
219 211 206 218 215 191 153 128 344 327 280 279 305 268 222 177 146 191 223 241 238 233 223 219 211 206 206 206 206 207 211 211 215 222 226 230 234 242 253 259 259 263 273
209 197 200 215 191 174 159 106 296 323 293 277 260 277 182 177 177 184 260 241 229 217 216 214 215 210 208 206 206 207 210 212 214 224 233 242 249 254 263 268 266 266 271
214 203 205 214 214 187 89 332 300 299 303 305 270 211 168 185 196 181 345 206 206 208 208 217 214 210 209 208 206 207 210 212 214 227 239 246 251 253 261 268 266 263 268
212 211 212 210 202 190 175 57 348 278 336 300 191 189 198 189 192 160 62 94 186 194 205 207 195 196 202 207 207 208 214 222 229 240 251 252 254 257 262 268 267 265 267
223 221 212 222 216 218 232 281 295 270 326 313 192 210 231 205 169 154 123 90 117 171 189 195 192 191 200 204 203 211 220 230 239 251 260 262 260 258 260 264 265 267 268
222 217 208 215 226 235 240 276 253 291 351 32 186 219 215 205 203 218 234 202 145 129 194 189 197 193 197 200 212 225 237 246 253 258 260 260 259 257 260 260 264 267 269
216 214 209 218 228 238 234 255 276 285 271 322 271 183 189 219 237 246 245 206 183 200 176 179 205 211 206 216 227 234 241 246 250 256 261 261 257 254 255 256 261 263 269
212 210 210 217 217 227 225 245 273 276 281 280 317 228 181 202 239 241 228 215 200 221 214 203 214 216 227 226 230 237 242 246 250 255 263 266 256 248 248 253 259 263 270
213 208 210 214 219 223 216 240 234 254 290 314 264 244 252 247 309 264 236 225 222 228 227 227 220 216 212 222 226 234 244 247 250 256 263 270 250 242 244 250 256 263 269
215 210 210 213 220 224 226 234 247 261 257 276 303 287 250 255 274 255 268 232 235 239 232 232 228 228 225 228 234 238 241 245 250 253 255 258 247 238 242 250 258 264 268
213 207 212 216 225 220 231 238 245 246 260 258 264 284 308 305 320 285 271 260 236 238 240 238 236 238 244 242 242 242 241 245 251 254 250 250 250 249 251 257 261 265 269
216 214 216 220 223 235 227 241 247 247 258 260 269 266 276 284 300 285 278 252 237 234 244 252 251 249 243 246 242 239 241 246 245 244 251 254 255 257 258 260 264 268 270
223 217 221 223 223 231 233 241 253 254 261 263 259 263 271 270 270 289 287 236 235 238 249 266 261 248 243 241 243 254 251 244 244 244 249 257 259 262 264 263 263 268 272
226 222 224 230 226 232 236 242 254 252 252 255 251 253 261 270 261 268 300 231 236 238 272 304 272 258 247 250 248 246 251 238 251 249 244 255 263 261 260 262 263 264 268
220 218 223 231 235 238 241 245 250 249 248 253 249 249 252 251 254 256 272 248 250 259 272 286 265 296 255 254 242 239 241 246 248 246 246 249 257 260 258 260 262 265 269
229 230 232 235 236 242 249 252 253 254 247 249 245 245 243 249 244 250 251 260 259 263 270 293 274 291 298 252 236 245 235 243 245 245 249 258 258 250 260 262 261 263 267
236 236 237 240 244 250 258 254 260 252 248 243 245 245 244 245 240 245 250 260 258 259 264 282 282 290 287 270 233 225 234 252 244 248 254 259 252 249 258 268 265 263 265
245 240 241 242 242 248 255 258 250 238 253 254 246 247 252 250 245 240 248 252 260 257 264 271 283 275 275 270 257 248 244 251 243 247 247 254 251 259 258 263 264 264 265
255 244 247 248 248 251 253 253 252 248 255 253 249 248 256 248 248 244 242 243 248 256 255 262 269 269 269 261 265 258 255 250 261 261 258 257 259 270 266 255 257 261 263
262 260 251 251 253 253 251 251 250 260 252 253 250 253 251 250 244 245 246 240 244 250 261 262 262 260 254 250 255 262 263 264 261 256 261 265 268 278 261 268 273 271 266
256 256 252 255 252 253 254 252 250 254 252 255 246 249 247 253 244 241 244 244 247 245 252 258 264 263 264 264 257 260 269 279 271 261 261 265 272 273 271 274 276 275 269
257 258 258 258 260 256 253 253 253 253 248 249 248 247 247 250 245 243 246 247 247 246 249 252 256 256 265 266 269 261 262 267 271 276 275 272 270 273 278 279 279 273 271
281 272 265 263 262 262 257 253 251 255 253 249 248 248 250 248 246 245 249 248 249 249 250 253 255 257 261 270 273 266 261 263 269 270 272 274 277 277 277 277 277 276 275
281 275 277 276 276 267 263 264 260 250 251 249 244 244 247 249 242 242 242 244 247 249 248 250 256 261 263 258 258 261 260 266 270 271 270 274 278 283 281 277 275 273 272
284 283 279 274 277 277 272 263 260 259 249 247 247 246 246 248 246 241 240 243 246 246 251 256 259 260 261 257 255 257 263 263 266 271 272 275 282 282 280 275 271 270 268
Wind_Speed_850mb
24 24 18 16 14 14 8 7 5 2 4 5 6 8 9 6 5 7 19 20 26 29 36 39 48 55 57 51 40 36 32 30 27 24 21 19 18 17 15 14 13 12 13
25 27 17 13 11 9 12 4 0 4 12 13 8 10 7 6 3 7 13 21 22 30 33 40 47 55 57 56 50 42 38 34 29 26 24 21 20 20 19 19 21 19 18
22 28 19 11 17 10 5 3 5 8 7 17 14 3 5 6 6 8 7 12 20 25 28 32 44 57 60 59 56 49 42 37 31 27 26 27 26 25 24 25 25 24 23
26 27 25 15 12 10 3 4 10 7 17 10 10 6 5 6 5 6 2 3 12 16 23 22 33 53 65 65 62 56 49 41 32 26 28 29 29 30 28 28 27 28 28
31 30 26 18 13 8 3 2 7 6 12 8 3 8 9 6 7 8 8 5 9 12 15 13 23 37 54 64 65 60 53 48 41 36 34 35 36 38 36 34 33 32 33
35 33 30 22 16 11 8 7 11 5 9 2 7 14 9 9 12 9 7 9 8 10 13 13 20 31 42 60 64 58 53 49 44 44 46 45 45 45 44 41 39 36 36
40 39 36 29 20 16 11 13 14 10 6 8 5 10 16 11 10 8 6 8 5 4 14 14 14 25 38 50 56 57 55 57 56 55 53 52 52 50 49 45 41 38 37
40 43 40 33 27 21 16 11 8 8 3 7 3 10 11 15 17 16 11 14 9 7 9 12 17 22 30 40 52 55 54 51 49 49 50 53 55 52 48 44 41 40 38
41 48 47 36 30 24 19 14 8 4 7 5 6 9 8 8 15 28 20 18 14 14 16 16 13 16 28 35 37 41 45 46 46 45 44 48 53 56 52 47 42 40 39
43 51 46 39 31 28 23 14 12 9 5 5 7 10 6 9 3 7 22 24 25 21 23 25 18 19 19 26 29 31 34 41 42 42 42 37 40 46 48 45 43 40 39
44 53 51 43 32 28 22 21 18 13 11 8 8 13 9 11 12 15 11 32 36 31 28 29 25 26 27 28 30 30 28 27 29 33 34 31 25 29 35 38 40 39 37
42 52 54 46 34 32 25 25 20 19 15 13 11 10 13 7 13 12 17 21 40 41 37 36 37 36 36 34 31 31 26 30 27 25 27 28 28 29 31 35 36 35 34
50 54 52 50 44 34 31 27 27 26 23 19 15 19 19 19 18 16 20 20 29 37 40 43 44 40 43 43 39 33 31 29 30 27 22 21 23 26 28 30 31 33 34
43 52 50 45 46 36 33 32 26 30 26 22 22 22 23 23 20 17 20 19 16 24 31 35 40 45 39 40 41 39 41 38 34 32 30 29 29 29 28 31 31 33 34
34 50 50 48 47 42 39 36 33 32 32 26 20 20 22 25 23 22 20 21 18 13 20 19 22 31 41 46 42 47 39 39 38 31 27 28 32 34 34 33 32 34 36
36 38 43 46 47 45 40 39 39 36 38 33 31 30 29 25 25 22 16 15 22 25 28 23 23 22 26 33 38 39 35 32 35 35 31 28 31 33 34 33 34 33 35
40 44 45 43 42 40 42 48 44 42 44 37 35 35 29 27 26 29 28 24 24 28 30 26 27 24 18 27 27 29 33 32 31 30 30 28 30 30 29 34 36 34 35
45 49 50 51 50 51 47 56 62 56 47 45 38 38 34 31 31 30 34 31 26 26 27 23 24 27 20 16 21 24 25 28 34 30 31 30 30 31 31 31 31 34 35
57 57 59 58 55 52 53 54 52 54 46 51 46 42 42 39 40 37 37 37 36 33 34 33 28 24 22 15 20 20 23 26 21 23 27 28 29 32 32 29 30 30 31
53 66 64 64 60 56 55 52 49 58 56 54 55 48 44 46 42 38 43 41 37 33 36 40 41 36 29 35 32 31 29 25 21 21 24 27 27 31 29 33 33 34 35
56 48 69 71 67 64 61 58 58 55 64 60 60 55 52 49 49 46 44 43 40 37 36 40 41 39 33 33 39 33 34 32 30 33 32 31 31 27 26 28 32 33 37
55 61 58 64 78 73 67 63 63 61 62 66 64 58 55 50 54 52 52 50 46 45 41 41 37 38 36 36 33 29 30 27 29 32 36 37 37 31 31 34 38 40 43
50 56 67 64 66 71 74 66 64 65 61 63 66 65 62 57 55 55 57 57 52 48 44 41 43 38 34 31 31 32 35 34 32 31 30 37 37 41 42 46 47 48 51
41 45 54 61 71 76 75 76 68 69 61 63 64 66 63 61 59 57 59 58 57 55 52 50 50 44 39 36 35 39 42 48 50 47 46 55 53 54 50 51 50 46 44
49 53 48 50 55 69 72 73 69 71 76 70 68 68 64 59 63 57 58 57 56 50 49 55 55 51 47 46 39 42 44 45 50 48 40 45 48 49 49 51 49 45 45
56 56 58 59 53 56 59 72 73 73 77 79 73 70 69 68 62 58 59 58 58 56 46 45 47 52 54 46 41 41 40 43 45 49 44 43 43 41 46 50 46 44 40
Wind_Direction_850mb
221 219 189 201 213 237 216 198 256 302 276 275 270 230 218 226 258 261 219 234 239 230 217 210 203 204 210 209 203 202 200 197 203 210 215 214 221 229 236 245 249 259 275
219 211 206 218 215 191 153 128 344 327 280 279 305 268 222 177 146 191 223 241 238 233 223 219 211 206 206 206 206 207 211 211 215 222 226 230 234 242 253 259 259 263 273
209 197 200 215 191 174 159 106 296 323 293 277 260 277 182 177 177 184 260 241 229 217 216 214 215 210 208 206 206 207 210 212 214 224 233 242 249 254 263 268 266 266 271
214 203 205 214 214 187 89 332 300 299 303 305 270 211 168 185 196 181 345 206 206 208 208 217 214 210 209 208 206 207 210 212 214 227 239 246 251 253 261 268 266 263 268
212 211 212 210 202 190 175 57 348 278 336 300 191 189 198 189 192 160 62 94 186 194 205 207 195 196 202 207 207 208 214 222 229 240 251 252 254 257 262 268 267 265 267
223 221 212 222 216 218 232 281 295 270 326 313 192 210 231 205 169 154 123 90 117 171 189 195 192 191 200 204 203 211 220 230 239 251 260 262 260 258 260 264 265 267 268
222 217 208 215 226 235 240 276 253 291 351 32 186 219 215 205 203 218 234 202 145 129 194 189 197 193 197 200 212 225 237 246 253 258 260 260 259 257 260 260 264 267 269
216 214 209 218 228 238 234 255 276 285 271 322 271 183 189 219 237 246 245 206 183 200 176 179 205 211 206 216 227 234 241 246 250 256 261 261 257 254 255 256 261 263 269
212 210 210 217 217 227 225 245 273 276 281 280 317 228 181 202 239 241 228 215 200 221 214 203 214 216 227 226 230 237 242 246 250 255 263 266 256 248 248 253 259 263 270
213 208 210 214 219 223 216 240 234 254 290 314 264 244 252 247 309 264 236 225 222 228 227 227 220 216 212 222 226 234 244 247 250 256 263 270 250 242 244 250 256 263 269
215 210 210 213 220 224 226 234 247 261 257 276 303 287 250 255 274 255 268 232 235 239 232 232 228 228 225 228 234 238 241 245 250 253 255 258 247 238 242 250 258 264 268
213 207 212 216 225 220 231 238 245 246 260 258 264 284 308 305 320 285 271 260 236 238 240 238 236 238 244 242 242 242 241 245 251 254 250 250 250 249 251 257 261 265 269
216 214 216 220 223 235 227 241 247 247 258 260 269 266 276 284 300 285 278 252 237 234 244 252 251 249 243 246 242 239 241 246 245 244 251 254 255 257 258 260 264 268 270
223 217 221 223 223 231 233 241 253 254 261 263 259 263 271 270 270 289 287 236 235 238 249 266 261 248 243 241 243 254 251 244 244 244 249 257 259 262 264 263 263 268 272
226 222 224 230 226 232 236 242 254 252 252 255 251 253 261 270 261 268 300 231 236 238 272 304 272 258 247 250 248 246 251 238 251 249 244 255 263 261 260 262 263 264 268
220 218 223 231 235 238 241 245 250 249 248 253 249 249 252 251 254 256 272 248 250 259 272 286 265 296 255 254 242 239 241 246 248 246 246 249 257 260 258 260 262 265 269
229 230 232 235 236 242 249 252 253 254 247 249 245 245 243 249 244 250 251 260 259 263 270 293 274 291 298 252 236 245 235 243 245 245 249 258 258 250 260 262 261 263 267
236 236 237 240 244 250 258 254 260 252 248 243 245 245 244 245 240 245 250 260 258 259 264 282 282 290 287 270 233 225 234 252 244 248 254 259 252 249 258 268 265 263 265
245 240 241 242 242 248 255 258 250 238 253 254 246 247 252 250 245 240 248 252 260 257 264 271 283 275 275 270 257 248 244 251 243 247 247 254 251 259 258 263 264 264 265
255 244 247 248 248 251 253 253 252 248 255 253 249 248 256 248 248 244 242 243 248 256 255 262 269 269 269 261 265 258 255 250 261 261 258 257 259 270 266 255 257 261 263
262 260 251 251 253 253 251 251 250 260 252 253 250 253 251 250 244 245 246 240 244 250 261 262 262 260 254 250 255 262 263 264 261 256 261 265 268 278 261 268 273 271 266
256 256 252 255 252 253 254 252 250 254 252 255 246 249 247 253 244 241 244 244 247 245 252 258 264 263 264 264 257 260 269 279 271 261 261 265 272 273 271 274 276 275 269
257 258 258 258 260 256 253 253 253 253 248 249 248 247 247 250 245 243 246 247 247 246 249 252 256 256 265 266 269 261 262 267 271 276 275 272 270 273 278 279 279 273 271
281 272 265 263 262 262 257 253 251 255 253 249 248 248 250 248 246 245 249 248 249 249 250 253 255 257 261 270 273 266 261 263 269 270 272 274 277 277 277 277 277 276 275
281 275 277 276 276 267 263 264 260 250 251 249 244 244 247 249 242 242 242 244 247 249 248 250 256 261 263 258 258 261 260 266 270 271 270 274 278 283 281 277 275 273 272
284 283 279 274 277 277 272 263 260 259 249 247 247 246 246 248 246 241 240 243 246 246 251 256 259 260 261 257 255 257 263 263 266 271 272 275 282 282 280 275 271 270 268